Terminal Aerodrome Forecast
Issued by NWS Sterling, VA

Current Version | Previous Version | Graphics & Text | Print | Product List | Glossary On
Versions: 1 2 3 4 5 6 7 8 9 10 11 12 13 14 15 16 17 18 19 20 21 22 23 24 25 26 27 28
000
FTUS41 KLWX 290500
TAFIAD
TAF
KIAD 290534Z 2906/3012 00000KT P6SM BKN090
     FM291400 15006KT P6SM BKN090
     FM291800 17010KT P6SM BKN090
     FM300700 19009KT P6SM SCT250=

USA.gov is the U.S. government's official web portal to all federal, state and local government web resources and services.